Location: ????
(40.0187°N, 44.8915°E)
Time: 05:39:44
(UTC+00:00)

Daily predictions for brighter satellites

Satellite Brightness Start Highest point End
(mag) Time Altitude Azimuth Time Altitude Azimuth Time Altitude Azimuth
Lacrosse 5 3.8 00:38:02 27° ENE 00:38:02 27° ENE 00:40:32 10° NE
Cosmos 1980 Rocket 4.3 00:38:53 16° NNE 00:41:33 22° NE 00:45:55 10° ESE
CZ-2C R/B 4.2 00:37:58 10° NE 00:42:08 28° E 00:43:14 25° ESE
Cosmos 2221 4.4 00:55:07 29° E 00:55:07 29° E 00:58:17 10° SE
Cosmos 2369 4.2 00:58:36 54° NE 00:59:01 56° ENE 01:04:39 10° SE
Milstar 3 4.5 01:13:20 24° SSW 01:13:20 24° SSW 01:18:51 10° SSE
MSX 3.8 01:08:35 10° NNE 01:13:44 72° N 01:13:44 72° N
PAYLOAD A 4.2 01:09:10 10° NNE 01:14:31 76° ESE 01:15:42 55° S
SJ 16-02 3.7 01:11:45 10° SSE 01:15:10 22° E 01:18:35 10° NE
Cosmos 2278 4.1 01:17:06 34° N 01:19:30 60° ENE 01:25:07 10° SE
Cosmos 1697 Rocket 2.7 01:21:31 59° N 01:22:38 80° ENE 01:28:14 10° SSE
Cosmos 1680 Rocket 4.5 01:22:15 18° N 01:25:59 46° ENE 01:31:05 10° SE
Cosmos 839 Rocket 4.2 01:21:40 24° SSW 01:26:27 87° ESE 01:32:53 10° NNE
OAO 2 Rocket 4.1 01:28:22 41° S 01:28:47 42° S 01:33:32 10° E
OAO 3 Rocket 4.4 01:29:28 32° S 01:30:00 33° SSE 01:34:16 10° E
Meteor 1-11 4.1 01:33:13 64° W 01:33:14 64° W 01:39:00 10° N
BREEZE-M DEB (TANK) 4.1 01:35:06 28° NE 01:35:06 28° NE 01:37:56 10° E
H-2A R/B 4.4 01:32:53 10° N 01:34:25 21° N 01:34:25 21° N
Cosmos 1934 Rocket 4.0 01:37:45 50° WSW 01:38:32 53° W 01:44:46 10° N
NOSS 3-3 (A) 4.3 01:35:15 10° SSW 01:40:56 61° ESE 01:47:14 10° NE
NOSS 3-3 (C) 4.3 01:35:22 10° SSW 01:41:02 61° ESE 01:47:20 10° NE
Cosmos 2082 Rocket 2.1 01:40:47 47° SW 01:42:18 67° WNW 01:48:01 10° NNE
Cosmos 923 Rocket 3.8 01:47:19 30° NNW 01:50:00 81° WSW 01:55:13 10° SSE
SL-27 R/B 2.9 01:49:36 32° S 01:50:53 56° ESE 01:54:08 10° NNE
STARLINK-80 3.9 01:53:13 38° SSW 01:54:22 57° SE 01:58:09 10° ENE
CZ-4C R/B 4.3 01:54:51 12° NNW 01:54:51 12° NNW 01:56:55 10° N
Cosmos 967 Rocket 4.4 01:51:30 23° SW 01:55:35 68° WNW 02:01:59 10° NNE
SKYMED 2 4.5 01:52:01 10° SSE 01:56:11 48° ENE 02:00:23 10° N
PSLV R/B 4.0 01:53:29 10° NNE 01:57:18 68° E 02:01:13 10° S
CZ-4B R/B 4.1 01:54:28 10° N 01:58:55 61° WNW 02:03:19 10° SSW
deb Kosmos-1763 4.0 01:58:51 16° SSW 02:01:45 89° ESE 02:05:28 10° NNE
Cosmos 1833 Rocket 3.4 02:04:18 30° NW 02:04:18 30° NW 02:09:00 10° N
STARLINK-48 3.9 02:05:36 21° SSW 02:08:02 58° SE 02:11:52 10° ENE
Cosmos 1153 Rocket 4.3 02:02:20 10° SSW 02:08:26 74° W 02:14:35 10° N
Cosmos 2123 Rocket 4.5 02:04:51 10° NNW 02:10:20 34° W 02:15:49 10° SSW
Cosmos 1898 Rocket 3.4 02:05:09 10° SSW 02:10:21 80° WNW 02:15:39 10° NNE
ATLAS 2AS CENTAUR R/B 4.1 02:07:40 10° NNW 02:14:45 38° NE 02:21:17 10° ESE
Cosmos 1076 Rocket 3.8 02:11:43 10° SSW 02:15:52 43° WNW 02:20:03 10° N
SL-16 R/B 3.6 02:11:28 10° N 02:16:44 37° ENE 02:21:57 10° SE
Cosmos 2058 2.9 02:13:42 10° SSW 02:17:49 55° W 02:21:58 10° N
ASTEX 1 3.6 02:13:44 10° SSW 02:18:27 45° W 02:23:13 10° NNW
Lacrosse 5 2.6 02:17:17 28° WNW 02:18:47 34° NW 02:23:24 10° NNE
BREEZE-M DEB (TANK) 3.5 02:20:31 18° NNW 02:20:31 18° NNW 02:21:56 10° NNE
CZ-2C R/B 3.1 02:16:05 10° N 02:20:19 30° WNW 02:22:35 20° WSW
Cosmos 1605 Rocket 4.4 02:16:11 10° SW 02:21:52 37° WNW 02:27:32 10° N
Cosmos 2173 Rocket 4.1 02:15:53 10° S 02:22:11 83° E 02:28:25 10° N
Meteor 2-20 4.4 02:17:42 10° NNW 02:23:49 66° W 02:29:54 10° S
Cosmos 1937 Rocket 3.4 02:19:26 10° SSW 02:24:36 82° WNW 02:29:46 10° NNE
Cosmos 1980 Rocket 2.3 02:20:43 12° NNW 02:25:57 57° WSW 02:31:28 10° S
CZ-4B R/B 4.2 02:24:39 10° NNW 02:26:04 19° NNW 02:26:04 19° NNW
Cosmos 2322 Rocket 3.5 02:22:48 10° N 02:28:07 39° ENE 02:33:23 10° SE
Okean 3 Rocket 3.5 02:24:51 10° SSW 02:29:21 75° W 02:33:54 10° N
ISS -1.9 02:29:42 16° SW 02:29:45 16° SW 02:31:56 10° S
Cosmos 2221 3.8 02:32:05 21° W 02:32:05 21° W 02:35:02 10° SW
NOAA 6 4.4 02:28:48 10° NNE 02:33:56 70° ESE 02:39:01 10° S
Cosmos 1356 Rocket 3.9 02:32:39 10° NNW 02:36:40 39° W 02:40:38 10° SSW
STARLINK-43 4.0 02:36:05 22° W 02:37:52 36° NNW 02:41:21 10° NE
BREEZE-M DEB (TANK) 1.0 02:37:12 29° WNW 02:38:09 75° SW 02:40:35 10° SE
Cosmos 1766 Rocket 3.4 02:33:52 10° S 02:38:10 79° W 02:42:31 10° N
Cosmos 858 Rocket 4.5 02:33:47 10° SSW 02:38:53 58° WNW 02:44:01 10° NNE
SJ-12 4.0 02:36:33 10° N 02:40:37 54° WNW 02:44:39 10° SSW
Gbstr 26 Del rocket 3.2 02:38:30 20° W 02:40:41 38° NNW 02:44:13 10° NE
COSMO-SKYMED 1 2.8 02:39:58 10° S 02:44:09 47° W 02:48:22 10° NNW
MOS 1-B 4.4 02:38:37 10° N 02:44:17 56° WNW 02:49:54 10° SSW
SL-4 R/B 4.0 02:41:39 11° NW 02:45:28 25° NNE 02:49:26 10° ENE
COSMOS 2455 3.1 02:46:10 10° NNW 02:52:12 72° ENE 02:58:11 10° SE
SJ 16-02 2.1 02:49:41 10° SW 02:53:33 30° WNW 02:57:27 10° N
CZ-4B R/B 3.1 02:51:39 10° N 02:57:01 73° WNW 03:02:27 10° SSW
PAYLOAD B 4.4 02:54:48 10° N 03:00:07 51° WNW 03:05:24 10° SW
Cosmos 1484 Rocket 4.0 02:57:44 10° NNW 03:00:52 22° WNW 03:04:00 10° WSW
Cosmos 2298 Rocket 4.0 02:56:32 10° SSW 03:01:51 86° WNW 03:07:11 10° NNE
STARLINK-36 4.4 02:58:21 10° SSW 03:02:23 54° SE 03:06:26 10° ENE
Abrixas rocket 4.0 03:01:13 10° SSW 03:03:55 31° SE 03:06:37 10° ENE
Cosmos 2151 3.6 03:00:01 10° SW 03:03:59 36° WNW 03:07:58 10° N
Okean O Rocket 1.8 03:00:56 10° N 03:05:07 48° WNW 03:09:17 10° SW
Cosmos 1697 Rocket 4.4 03:03:27 10° WNW 03:05:47 13° W 03:08:07 10° WSW
Cosmos 2346 Rocket 4.5 03:01:02 10° N 03:07:09 89° E 03:13:12 10° S
Cosmos 1725 Rocket 4.0 03:02:10 10° S 03:08:24 80° W 03:14:44 10° N
FENGYUN 3A 3.9 03:03:36 10° N 03:08:48 48° WNW 03:13:58 10° SW
STARLINK-35 4.2 03:04:54 10° SW 03:08:58 62° SE 03:13:04 10° NE
ATLAS CENTAUR R/B 2.0 03:04:28 10° SSW 03:09:23 77° ESE 03:14:14 10° NE
Cosmos 1459 Rocket 4.3 03:03:56 10° SSW 03:09:42 42° WNW 03:15:36 10° N
STARLINK-51 4.1 03:06:33 10° SW 03:10:39 65° SE 03:14:45 10° NE
Cosmos 1892 3.8 03:08:04 10° SW 03:11:07 23° WNW 03:14:10 10° NNW
Shenzhou-11 Module 2.2 03:09:07 10° WNW 03:11:46 48° N 03:14:25 10° E
STARLINK-30 4.1 03:08:13 10° SW 03:12:18 67° SE 03:16:26 10° NE
OAO 3 Rocket 4.0 03:08:31 10° WSW 03:13:06 46° S 03:17:37 10° ESE
Cosmos 2016 Rocket 4.1 03:07:04 10° SSW 03:13:09 58° W 03:19:23 10° N
OAO 2 Rocket 4.1 03:08:19 10° WSW 03:13:12 47° S 03:17:59 10° ESE
ALOS 2.9 03:09:12 10° N 03:13:26 35° WNW 03:17:39 10° SW
Cosmos 1606 3.5 03:09:50 10° N 03:13:34 56° E 03:17:17 10° SSE
STARLINK-33 4.0 03:09:52 10° SW 03:13:59 70° SE 03:18:06 10° NE
STARLINK-50 3.9 03:11:32 10° SW 03:15:39 72° SE 03:19:47 10° NE
